Voltar ao catálogo

METEOR 1-19

AtivoMeteoPO
NORAD 7490·PAYLOAD·🇷🇺 Russia

Lançado Oct 28, 1974 de Plesetsk Cosmodrome

Loading…

Próximas Passagens (próximas 24 horas)

TLE

AtualizadoSource: Space-Track

Época: Sep 14, 2026, 08:36 UTC

1 07490U 74083A   26257.35885543  .00000035  00000-0  12331-4 0  9997
2 07490  81.1873  50.4347 0030054 188.9319 171.1322 14.10586727667450

Acompanhe METEOR 1-19 em tempo real com AllMySat

Download on the App Store